LUCH-5A

Last updated on Mon Oct 20 2025 00:02:47 GMT+0000 (Coordinated Universal Time)

1 37951U 11074B 25292.22901037 -.00000046 00000+0 00000+0 0 9991 2 37951 8.1383 77.3894 0005111 144.7587 55.1247 1.00271046 50631
UTC large
Height (km)
Speed (km/s)
/
Latitude / Longitude
Inclination (degrees)
Orbital Period (minutes)
Azimuth
Elevation
Range (km)
Doppler Factor

Next 0 passes for location: London (51.5072 / 0.1276)

Sorry there are no passes over London.